Showing default

FLOCK 4Q 31, 58285

Orbit data source: Space-Track

FLOCK 4Q 31, 58285 is a payload satellite owned by Planet (US) in SSO that was launched on Sat, 11 Nov 2023 UTC via an FALCON 9 launch vehicle from the Air Force Western Test Range (AFWTR). Payload-class satellites include a variety of spacecraft equipped with specific instruments for various scientific and technological missions. These include communications satellites like Starlink; space stations such as the ISS; scientific satellites like the Hubble; Earth observation satellites from companies like Planet Labs, Umbra, and HawkEye 360; GPS; miniature CubeSats for education and research; and military/defense satellites.

Loading next visibility...
Identifier
58285, 2023-174AF
Orbit
SSO
Country
Flag of USUS
Related business
Manufacturer
Planet
Mission
Operational Commercial Imaging
Bus & Motor
CUBESAT 3U, Unknown motor
Mass
5.7 kg wet, 5.7 kg dry
Launch date (UTC)
2023-11-11 (2 years ago)
Launch vehicle
FALCON 9
Launch site
Air Force Western Test Range (AFWTR)
Object type
Payload
Rocket body
Debris
Shape & HBR
Box + 2 Pan, 1.0 m
Radar Cross Section
0.072 m², Medium (>0.1 m² and < 1m²)

Expand to show TLE details & history
Last TLE update: 18 hours ago

TLE from 18 hours ago
0 FLOCK 4Q 31
1 58285U 23174AF  25350.20659441  .00020924  00000-0  45206-3 0  9998
2 58285  97.4078  72.3195 0008022  98.5796 261.6361 15.44509981117424
Epoch: 2025-12-16T04:57Z
TLE epoch observation values (Epoch: 2025-12-16T04:57:29.757Z)
Latitude
-0.00006°
Longitude
-87.14861°
Altitude
436.741 km
Speed
7.649 km/s
True Right ascension
04h 49m 16s
True Declination
0° 00' 00"
Sunlit
Object was in full shadow at epoch
Visualization orbit readout
Latitude
Unknown
Longitude
Unknown
Altitude
Unknown
Speed
Unknown
Apparent Right ascension
Unknown
Apparent Declination
Unknown
Sunlit
N/A
Visualization observer readout
Local Sidereal Time
22:08:02
Azimuth
Unknown
Elevation
Unknown
Doppler factor
Unknown
Orbital elements
Apogee altitude
435.213 km
Perigee altitude
424.29 km
Semi-major axis
6,807.889 km
Eccentricity
0.0008
Inclination
97.4078°
RAAN
72.3195°
Arg. of periapsis
98.5796°
True anomaly
261.54517°
Mean anomaly
261.6361°
Eccentric anomaly
261.59063°
Mean motion
3.86389 °/min
Orbital period
93.17 mins
BSTAR
0.00045206
Loading maneuver chart data...
Computing Atmospheric mass density...
Loading historical data...
Loading historical data...
Loading historical data...
Loading historical data...
Loading historical data...
Loading historical data...
Loading historical data...

Documentation

Showing up to 5 results
|